www.pogodaiklimat.ru

Погода и климат >> Архив погоды >> Казахстан >> Исатай


ПОГОДА в Исатай

  • Прогноз погоды в Исатай
  • Монитор погоды в Исатай
  • Климат города

АРХИВ ПОГОДЫ в Исатай

Время (UTC), дата Ветер
(напр.,м/с)
 
Видим.   Явления Облачность Т
(С)
Тd
(С)
f
(%)
Тe
(С)
Тes
(С)
Комфортность P
(гПа)
Po
(гПа)
Тmin
(С)
Tmax
(С)
R
(мм)
S
(см)
03 21.03 СВ 4 12 км н/о +1.8 -39.1 3 -2 -2 1006.4 1009.8 1
06 21.03 СВ 5 4400 м н/о +2.2 -38.8 3 -2 -2 1005.5 1008.9
09 21.03 СВ 5 5000 м н/о +3.0 -38.2 3 -1 -1 1004.7 1008.1
12 21.03 СВ 3 6000 м н/о +3.8 -37.7 3 +2 +2 1004.1 1007.5
15 21.03 СВ 5 2600 м н/о +2.4 -38.7 3 -1 -1 1004.7 1008.1 +3.8
18 21.03 СВ 4 2900 м н/о +1.6 -39.2 3 -2 -2 1004.7 1008.1 +3.8 11
21 21.03 СВ 2 2500 м н/о +2.3 -38.7 3 +1 +1 1004.8 1008.2
00 22.03 В 1 3900 м н/о +2.9 -38.3 3 +3 +3 1005.6 1009.0
03 22.03 Ю 4 900 м н/о +1.5 -39.3 3 -2 -2 1008.0 1011.4
06 22.03 Ю 6 13 км н/о +2.0 -38.9 3 -2 -2 1010.7 1014.1 0.7
09 22.03 Ю 5 13 км н/о +2.9 -38.3 3 -1 -1 1012.4 1015.8
12 22.03 Ю 4 13 км н/о +3.2 -38.1 3 0 0 1014.2 1017.6
15 22.03 Ю 5 13 км н/о +3.1 -38.2 3 -1 -1 1016.5 1019.9 +3.5
18 22.03 Ю 5 10 км н/о +2.8 -38.4 3 -1 -1 1018.6 1022.0 +3.5
21 22.03 ЮВ 3 7000 м н/о +1.8 -39.1 3 -1 -1 1020.0 1023.5
12 23.03 ЮВ 5 15 км ясно +11.7 -32.2 3 +10 +13 1023.2 1026.6
15 23.03 Ю 2 13 км ясно +9.1 -34.0 3 +9 +9 1024.1 1027.5 +11.7
18 23.03 СЗ 1 8000 м ясно +3.4 -38.0 3 +4 +4 1024.9 1028.4 +11.7
21 23.03 штиль 0 5000 м н/о +2.6 -38.5 3 +3 +3 1024.9 1028.4
00 24.03 В 2 7000 м ясно +2.0 -38.9 3 0 0 1024.9 1028.4
03 24.03 З 1 7000 м ясно +0.1 -40.3 3 -0 0 1025.9 1029.4
06 24.03 ЮЗ 1 13 км ясно +9.5 -33.7 3 +10 +18 1026.4 1029.8
09 24.03 З 3 13 км н/о +12.0 -32.0 3 +11 +11 1025.8 1029.2
12 24.03 ЮЗ 4 16 км н/о +12.5 -31.7 3 +11 +11 1024.6 1028.0
15 24.03 Ю 3 13 км н/о +7.3 -35.3 3 +6 +6 1025.1 1028.5 +13.0
18 24.03 Ю 3 6000 м н/о +2.7 -38.5 3 0 0 1025.4 1028.9 +13.0
21 24.03 ЮЗ 3 8000 м н/о +3.3 -38.0 3 +1 +1 1024.3 1027.8
00 25.03 Ю 5 6000 м н/о +2.2 -38.8 3 -2 -2 1022.8 1026.3
03 25.03 Ю 3 5000 м н/о +1.0 -39.6 3 -2 -2 1022.1 1025.6
06 25.03 ЮЗ 7 11 км н/о +6.3 -35.9 3 +3 +3 1020.5 1023.9
09 25.03 Ю 8 13 км ясно +7.1 -35.4 3 +3 +5 1018.5 1021.9
12 25.03 Ю 10 13 км н/о +6.8 -35.6 3 +2 +2 1016.6 1020.0
15 25.03 Ю 5 11 км н/о +5.0 -36.8 3 +2 +2 1015.3 1018.7 +7.7
18 25.03 Ю 7 13 км н/о +5.5 -36.5 3 +2 +2 1014.8 1018.2 +7.7
21 25.03 Ю 4 10 км н/о +4.8 -37.0 3 +2 +2 1014.3 1017.7
00 26.03 ЮЗ 3 7000 м н/о +5.2 -36.7 3 +3 +3 1013.6 1017.0
03 26.03 З 2 7000 м н/о +5.3 -36.6 3 +4 +4 1014.3 1017.7
06 26.03 С 5 11 км н/о +4.2 -37.4 3 +1 +1 1015.3 1018.7 2
09 26.03 С 4 13 км н/о +5.1 -36.8 3 +3 +3 1016.0 1019.4
12 26.03 СВ 2 15 км н/о +6.9 -35.5 3 +6 +6 1016.1 1019.5
15 26.03 ЮВ 3 13 км н/о +5.6 -36.4 3 +4 +4 1015.6 1019.0 +7.1
18 26.03 ЮВ 1 12 км н/о +4.4 -37.3 3 +5 +5 1015.5 1018.9 +7.1 0.4
21 26.03 З 2 13 км н/о +4.6 -37.1 3 +3 +3 1015.4 1018.8
00 27.03 СЗ 3 7000 м н/о +2.3 -38.7 3 -0 -0 1014.1 1017.5
03 27.03 С 1 10 км н/о +2.4 -38.7 3 +2 +2 1012.6 1016.0
06 27.03 З 1 13 км н/о +4.2 -37.4 3 +4 +4 1012.4 1015.8 0.9
09 27.03 В 1 14 км н/о +4.8 -37.0 3 +5 +5 1011.2 1014.6
15 27.03 Ю 5 13 км н/о +3.3 -38.0 3 -0 -0 1010.0 1013.4 +5.4
18 27.03 Ю 5 12 км н/о +2.8 -38.4 3 -1 -1 1009.9 1013.3 +5.4
21 27.03 ЮЗ 5 10 км н/о +3.8 -37.7 3 0 0 1008.9 1012.3
00 28.03 Ю 5 11 км н/о +3.6 -37.8 3 0 0 1007.6 1011.0

 

Местоположение метеостанции Исатай (Атырауская область, Казахстан): широта 46.80 долгота 50.07 высота над уровнем моря м.

В архиве по умолчанию представлена погода в Исатай за последнюю неделю. Архивные данные за месяц целиком и за предыдущие месяцы, начиная с января 2011 года, Вы можете получить, выбрав интересующий диапазон дат из раскрывающегося списка и нажав кнопку "Ввод!".

Внимание! Время в таблицах - всемирное. Для получения местного времени необходимо прибавить поправку, которая в Исатай равна 5 ч.

Смотрите также архив погоды в соседних городах и на ближайших метеорологических станциях:

Погода в Ганюшкино (Атырауская область, Казахстан) (65 км)
Погода в Зеленге (Астраханская область, Россия) (131 км)
Погода в Атырау (Атырауская область, Казахстан) (145 км)
Погода в Махамбете (Атырауская область, Казахстан) (150 км)
Погода в Жанауштогане (Атырауская область, Казахстан) (155 км)
Погода в Досанге (Астраханская область, Россия) (163 км)
Погода в Астрахани (Астраханская область, Россия) (170 км)
Погода на Кулалы Острове (Мангистауская область, Казахстан) (199 км)
Погода в Индерборском (Атырауская область, Казахстан) (222 км)
Погода в Харабали (Астраханская область, Россия) (224 км)

Пояснения к столбцам:

Ветер - указаны скорость ветра в м/с - средняя за 10 мин, порывы в срок и между сроками (в фигурных скобках) и направление, откуда дует ветер: С - северный, СВ - северо-восточный, В - восточный, ЮВ - юго-восточный, Ю - южный, ЮЗ - юго-западный, З - западный, СЗ - северо-западный.
Видимость - горизонтальная дальность видимости в метрах или километрах. При видимости от 1 до 10 км при отсутствии осадков обычно наблюдается дымка, при ухудшении видимости до 1 км и менее - туман. В сухую погоду видимость может ухудшаться дымом, пылью или мглою.
Явления - указаны атмосферные явления, наблюдавшиеся в срок или в последний час перед сроком; фигурными скобками обозначены явления, наблюдавшиеся между сроками (за 1-3 часа до срока); квадратными скобками обозначены град или гололедные отложения с указанием их диаметра в мм.
Облачность - указаны через наклонную черту общая и нижняя облачность в баллах и высота нижней границы облаков в метрах; квадратными скобками обозначены формы облаков: Ci - перистые, Cs - перисто-слоистые, Cc - перисто-кучевые, Ac - высококучевые, As - высокослоистые, Sc - слоисто-кучевые, Ns - слоисто-дождевые, Cu - кучевые, Cb - кучево-дождевые. Подробнее классификацию облаков см. в Атласе облаков (PDF).
T - Температура воздуха - температура, измеренная на высоте 2 м над землей.
Td - Температура точки росы - температура, при понижении до которой содержащийся в воздухе водяной пар достигнет насыщения.
f - Относительная влажность воздуха - влажноcть воздуха, измеренная на высоте 2 м над землей.
Te - Эффективная температура - температура, которую ощущает одетый по сезону человек в тени. Характеристика душности погоды. При расчете учитывается влияние влажности воздуха и скорости ветра на теплоощущения человека.
Tes - Эффективная температура на солнце - температура, которую ощущает человек, с поправкой на солнечный нагрев. Характеристика знойности погоды. Зависит от высоты солнца над горизонтом, облачности и скорости ветра. Ночью, в пасмурную погоду, а также при ветре 12 м/с и более поправка равна нулю.
P - Атмосферное давление - приведенное к уровню моря атмосферное давление.
Po - Атмосферное давление - измеренное на уровне метеостанции атмосферное давление.
Tmin - Минимальная температура - минимум температуры воздуха на высоте 2 м над землей.
Tmax - Максимальная температура - максимум температуры воздуха на высоте 2 м над землей.
R - Количество осадков - Количество выпавших осадков, мм. При наведении курсора мыши на число - период времени, за который выпало указанное количество осадков.
S - Снежный покров - Высота снежного покрова, см. При наведении курсора мыши на число - состояние снежного покрова и степень покрытия местности в баллах.